contact:dominique.lefevre@mio.osupytheas.fr, maurice.libes@osupytheas.fr, didier.mallarino@osupytheas.fr
Project:EMSO http://www.emso-fr.org/EMSO-France
Depth: 2436.0 m
Title:EMSO Ligure Ouest : Data MII capteur CSTAR
DateTime,Latitude,Longitude,Instrument_Serial,Reference_Counts,Signal_Counts,Corrected_Signal_raw_counts,Calculated_Beam_c_inverse_meters,Internal_thermistor_counts
DateTime,Latitude,Longitude,Instrument_Serial,Reference_Counts,Signal_Counts,Corrected_Signal_raw_counts,Calculated_Beam_c_inverse_meters,Internal_thermistor_counts
2019-05-24T00:02:16,42.805,6.029,CST-1368DR,9390,13142,15583,0.008,551
2019-05-24T00:05:17,42.805,6.029,CST-1368DR,9390,13143,15584,0.008,551
2019-05-24T00:08:19,42.805,6.029,CST-1368DR,9390,13144,15584,0.008,551
2019-05-24T00:11:20,42.805,6.029,CST-1368DR,9390,13141,15582,0.009,551
2019-05-24T00:14:22,42.805,6.029,CST-1368DR,9390,13142,15582,0.009,551
2019-05-24T00:17:23,42.805,6.029,CST-1368DR,9390,13142,15583,0.008,551
2019-05-24T00:20:24,42.805,6.029,CST-1368DR,9390,13142,15582,0.009,550
2019-05-24T00:23:26,42.805,6.029,CST-1368DR,9390,13141,15582,0.009,551
2019-05-24T00:26:27,42.805,6.029,CST-1368DR,9390,13142,15583,0.008,551
2019-05-24T00:29:29,42.805,6.029,CST-1368DR,9390,13143,15583,0.008,551
2019-05-24T00:32:30,42.805,6.029,CST-1368DR,9390,13143,15583,0.008,551
2019-05-24T00:35:31,42.805,6.029,CST-1368DR,9390,13142,15583,0.008,551
2019-05-24T00:38:33,42.805,6.029,CST-1368DR,9389,13135,15576,0.010,551
2019-05-24T00:41:34,42.805,6.029,CST-1368DR,9389,13140,15581,0.009,551
2019-05-24T00:44:36,42.805,6.029,CST-1368DR,9389,13139,15580,0.009,551
2019-05-24T00:47:37,42.805,6.029,CST-1368DR,9389,13141,15583,0.008,550
2019-05-24T00:50:38,42.805,6.029,CST-1368DR,9389,13140,15581,0.009,551
2019-05-24T00:53:40,42.805,6.029,CST-1368DR,9389,13141,15583,0.008,551
2019-05-24T00:56:41,42.805,6.029,CST-1368DR,9389,13142,15584,0.008,550
2019-05-24T00:59:43,42.805,6.029,CST-1368DR,9389,13141,15583,0.008,551
2019-05-24T01:02:44,42.805,6.029,CST-1368DR,9389,13141,15583,0.008,551
2019-05-24T01:05:46,42.805,6.029,CST-1368DR,9389,13140,15581,0.009,551
2019-05-24T01:08:47,42.805,6.029,CST-1368DR,9389,13139,15581,0.009,551
2019-05-24T01:11:48,42.805,6.029,CST-1368DR,9389,13141,15582,0.009,551
2019-05-24T01:14:50,42.805,6.029,CST-1368DR,9389,13140,15581,0.009,551
2019-05-24T01:17:51,42.805,6.029,CST-1368DR,9389,13139,15580,0.009,551
2019-05-24T01:20:53,42.805,6.029,CST-1368DR,9389,13140,15581,0.009,551
2019-05-24T01:23:54,42.805,6.029,CST-1368DR,9389,13139,15581,0.009,551
2019-05-24T01:26:55,42.805,6.029,CST-1368DR,9389,13141,15583,0.008,551
2019-05-24T01:29:57,42.805,6.029,CST-1368DR,9389,13141,15583,0.008,551
2019-05-24T01:32:58,42.805,6.029,CST-1368DR,9389,13137,15578,0.010,551
2019-05-24T01:36:00,42.805,6.029,CST-1368DR,9389,13140,15581,0.009,551
2019-05-24T01:39:01,42.805,6.029,CST-1368DR,9388,13135,15577,0.010,551
2019-05-24T01:42:02,42.805,6.029,CST-1368DR,9389,13138,15579,0.009,551
2019-05-24T01:45:04,42.805,6.029,CST-1368DR,9389,13138,15579,0.009,551
2019-05-24T01:48:05,42.805,6.029,CST-1368DR,9389,13139,15580,0.009,551
2019-05-24T01:51:07,42.805,6.029,CST-1368DR,9389,13139,15581,0.009,551
2019-05-24T01:54:08,42.805,6.029,CST-1368DR,9388,13140,15583,0.008,551
2019-05-24T01:57:10,42.805,6.029,CST-1368DR,9389,13137,15578,0.010,551
2019-05-24T02:00:11,42.805,6.029,CST-1368DR,9388,13141,15584,0.008,551
2019-05-24T02:03:12,42.805,6.029,CST-1368DR,9388,13140,15583,0.008,551
2019-05-24T02:06:14,42.805,6.029,CST-1368DR,9388,13140,15583,0.008,551
2019-05-24T02:09:15,42.805,6.029,CST-1368DR,9388,13141,15584,0.008,551
2019-05-24T02:12:17,42.805,6.029,CST-1368DR,9388,13140,15584,0.008,551
2019-05-24T02:15:18,42.805,6.029,CST-1368DR,9388,13141,15584,0.008,550
2019-05-24T02:18:19,42.805,6.029,CST-1368DR,9388,13137,15579,0.009,550
2019-05-24T02:21:21,42.805,6.029,CST-1368DR,9388,13140,15583,0.008,551
2019-05-24T02:24:22,42.805,6.029,CST-1368DR,9388,13141,15584,0.008,551
2019-05-24T02:27:24,42.805,6.029,CST-1368DR,9388,13135,15577,0.010,550
2019-05-24T02:30:25,42.805,6.029,CST-1368DR,9388,13139,15581,0.009,551
2019-05-24T02:33:26,42.805,6.029,CST-1368DR,9388,13141,15584,0.008,551
2019-05-24T02:36:28,42.805,6.029,CST-1368DR,9388,13141,15584,0.008,551
2019-05-24T02:39:29,42.805,6.029,CST-1368DR,9388,13140,15584,0.008,551
2019-05-24T02:42:31,42.805,6.029,CST-1368DR,9388,13140,15583,0.008,551
2019-05-24T02:45:32,42.805,6.029,CST-1368DR,9388,13141,15584,0.008,551
2019-05-24T02:48:33,42.805,6.029,CST-1368DR,9388,13140,15583,0.008,551
2019-05-24T02:51:35,42.805,6.029,CST-1368DR,9388,13139,15581,0.009,551
2019-05-24T02:54:36,42.805,6.029,CST-1368DR,9388,13141,15584,0.008,551
2019-05-24T02:57:38,42.805,6.029,CST-1368DR,9388,13140,15583,0.008,551
2019-05-24T03:00:39,42.805,6.029,CST-1368DR,9388,13141,15585,0.008,551
2019-05-24T03:03:41,42.805,6.029,CST-1368DR,9388,13140,15583,0.008,551
2019-05-24T03:06:42,42.805,6.029,CST-1368DR,9388,13139,15581,0.009,551
2019-05-24T03:09:43,42.805,6.029,CST-1368DR,9388,13141,15584,0.008,551
2019-05-24T03:12:45,42.805,6.029,CST-1368DR,9388,13141,15584,0.008,551
2019-05-24T03:15:46,42.805,6.029,CST-1368DR,9388,13141,15584,0.008,550
2019-05-24T03:18:48,42.805,6.029,CST-1368DR,9388,13141,15585,0.008,551
2019-05-24T03:21:49,42.805,6.029,CST-1368DR,9388,13140,15583,0.008,551
2019-05-24T03:24:50,42.805,6.029,CST-1368DR,9388,13140,15583,0.008,551
2019-05-24T03:27:52,42.805,6.029,CST-1368DR,9387,13141,15586,0.008,551
2019-05-24T03:30:53,42.805,6.029,CST-1368DR,9388,13141,15584,0.008,551
2019-05-24T03:33:55,42.805,6.029,CST-1368DR,9387,13137,15582,0.009,551
2019-05-24T03:36:56,42.805,6.029,CST-1368DR,9387,13122,15563,0.014,551
2019-05-24T03:39:57,42.805,6.029,CST-1368DR,9387,13139,15584,0.008,551
2019-05-24T03:42:59,42.805,6.029,CST-1368DR,9387,13134,15578,0.010,551
2019-05-24T03:46:00,42.805,6.029,CST-1368DR,9387,13139,15584,0.008,550
2019-05-24T03:49:02,42.805,6.029,CST-1368DR,9387,13139,15584,0.008,551
2019-05-24T03:52:03,42.805,6.029,CST-1368DR,9387,13139,15584,0.008,550
2019-05-24T03:55:04,42.805,6.029,CST-1368DR,9387,13139,15584,0.008,550
2019-05-24T03:58:06,42.805,6.029,CST-1368DR,9387,13139,15584,0.008,551
2019-05-24T04:01:07,42.805,6.029,CST-1368DR,9387,13138,15582,0.009,551
2019-05-24T04:04:09,42.805,6.029,CST-1368DR,9387,13139,15583,0.008,551
2019-05-24T04:07:10,42.805,6.029,CST-1368DR,9387,13139,15583,0.008,550
2019-05-24T04:10:12,42.805,6.029,CST-1368DR,9387,13140,15585,0.008,551
2019-05-24T04:13:13,42.805,6.029,CST-1368DR,9387,13136,15579,0.009,550
2019-05-24T04:16:14,42.805,6.029,CST-1368DR,9387,13139,15583,0.008,551
2019-05-24T04:19:16,42.805,6.029,CST-1368DR,9387,13137,15581,0.009,550
2019-05-24T04:22:17,42.805,6.029,CST-1368DR,9387,13138,15582,0.009,551
2019-05-24T04:25:19,42.805,6.029,CST-1368DR,9387,13139,15583,0.008,551
2019-05-24T04:28:20,42.805,6.029,CST-1368DR,9387,13137,15581,0.009,551
2019-05-24T04:31:21,42.805,6.029,CST-1368DR,9387,13124,15566,0.013,551
2019-05-24T04:34:23,42.805,6.029,CST-1368DR,9387,13137,15581,0.009,551
2019-05-24T04:37:24,42.805,6.029,CST-1368DR,9387,13134,15578,0.010,551
2019-05-24T04:40:26,42.805,6.029,CST-1368DR,9387,13127,15569,0.012,551
2019-05-24T04:43:27,42.805,6.029,CST-1368DR,9386,13137,15582,0.009,550
2019-05-24T04:46:28,42.805,6.029,CST-1368DR,9387,13136,15580,0.009,551
2019-05-24T04:49:30,42.805,6.029,CST-1368DR,9386,13137,15583,0.008,551
2019-05-24T04:52:31,42.805,6.029,CST-1368DR,9387,13137,15581,0.009,551
2019-05-24T04:55:33,42.805,6.029,CST-1368DR,9386,13134,15579,0.009,550
2019-05-24T04:58:34,42.805,6.029,CST-1368DR,9386,13137,15582,0.009,551
2019-05-24T05:01:36,42.805,6.029,CST-1368DR,9386,13131,15576,0.010,550
2019-05-24T05:04:37,42.805,6.029,CST-1368DR,9386,13138,15584,0.008,551
2019-05-24T05:07:38,42.805,6.029,CST-1368DR,9386,13135,15580,0.009,550
2019-05-24T05:10:40,42.805,6.029,CST-1368DR,9386,13137,15582,0.009,551
2019-05-24T05:13:41,42.805,6.029,CST-1368DR,9386,13136,15582,0.009,551
2019-05-24T05:16:43,42.805,6.029,CST-1368DR,9386,13136,15581,0.009,551
2019-05-24T05:19:44,42.805,6.029,CST-1368DR,9386,13134,15579,0.009,551
2019-05-24T05:22:45,42.805,6.029,CST-1368DR,9386,13135,15580,0.009,551
2019-05-24T05:25:47,42.805,6.029,CST-1368DR,9386,13135,15581,0.009,551
2019-05-24T05:28:48,42.805,6.029,CST-1368DR,9386,13136,15582,0.009,551
2019-05-24T05:31:50,42.805,6.029,CST-1368DR,9386,13136,15582,0.009,551
2019-05-24T05:34:51,42.805,6.029,CST-1368DR,9386,13138,15583,0.008,551
2019-05-24T05:37:52,42.805,6.029,CST-1368DR,9386,13134,15579,0.009,551
2019-05-24T05:40:54,42.805,6.029,CST-1368DR,9386,13136,15581,0.009,551
2019-05-24T05:43:55,42.805,6.029,CST-1368DR,9386,13135,15581,0.009,551
2019-05-24T05:46:57,42.805,6.029,CST-1368DR,9386,13136,15582,0.009,551
2019-05-24T05:49:58,42.805,6.029,CST-1368DR,9386,13135,15580,0.009,551
2019-05-24T05:52:59,42.805,6.029,CST-1368DR,9386,13136,15581,0.009,551
2019-05-24T05:56:01,42.805,6.029,CST-1368DR,9386,13135,15580,0.009,550
2019-05-24T05:59:02,42.805,6.029,CST-1368DR,9386,13133,15578,0.010,551
2019-05-24T06:02:04,42.805,6.029,CST-1368DR,9385,13137,15584,0.008,551
2019-05-24T06:05:05,42.805,6.029,CST-1368DR,9385,13134,15580,0.009,551
2019-05-24T06:08:07,42.805,6.029,CST-1368DR,9385,13132,15578,0.010,551
2019-05-24T06:11:08,42.805,6.029,CST-1368DR,9385,13129,15575,0.011,551
2019-05-24T06:14:09,42.805,6.029,CST-1368DR,9385,13133,15580,0.009,551
2019-05-24T06:17:11,42.805,6.029,CST-1368DR,9385,13137,15584,0.008,551
2019-05-24T06:20:12,42.805,6.029,CST-1368DR,9385,13135,15582,0.009,551
2019-05-24T06:23:14,42.805,6.029,CST-1368DR,9385,13134,15581,0.009,551
2019-05-24T06:26:15,42.805,6.029,CST-1368DR,9385,13134,15581,0.009,551
2019-05-24T06:29:16,42.805,6.029,CST-1368DR,9385,13134,15580,0.009,551
2019-05-24T06:32:18,42.805,6.029,CST-1368DR,9385,13135,15581,0.009,551
2019-05-24T06:35:19,42.805,6.029,CST-1368DR,9385,13135,15582,0.009,551
2019-05-24T06:38:21,42.805,6.029,CST-1368DR,9385,13136,15583,0.008,551
2019-05-24T06:41:22,42.805,6.029,CST-1368DR,9385,13131,15577,0.010,551
2019-05-24T06:44:23,42.805,6.029,CST-1368DR,9385,13135,15582,0.009,551
2019-05-24T06:47:25,42.805,6.029,CST-1368DR,9385,13134,15580,0.009,551
2019-05-24T06:50:26,42.805,6.029,CST-1368DR,9385,13133,15579,0.009,550
2019-05-24T06:53:28,42.805,6.029,CST-1368DR,9385,13134,15580,0.009,551
2019-05-24T06:56:29,42.805,6.029,CST-1368DR,9385,13135,15581,0.009,551
2019-05-24T06:59:31,42.805,6.029,CST-1368DR,9385,13135,15582,0.009,550
2019-05-24T07:02:32,42.805,6.029,CST-1368DR,9385,13134,15581,0.009,550
2019-05-24T07:05:33,42.805,6.029,CST-1368DR,9385,13134,15580,0.009,550
2019-05-24T07:08:35,42.805,6.029,CST-1368DR,9385,13129,15575,0.011,551
2019-05-24T07:11:36,42.805,6.029,CST-1368DR,9384,13110,15554,0.016,551
2019-05-24T07:14:38,42.805,6.029,CST-1368DR,9384,13131,15578,0.010,550
2019-05-24T07:17:39,42.805,6.029,CST-1368DR,9384,13131,15579,0.009,551
2019-05-24T07:20:40,42.805,6.029,CST-1368DR,9384,13133,15580,0.009,551
2019-05-24T07:23:42,42.805,6.029,CST-1368DR,9384,13133,15581,0.009,551
2019-05-24T07:26:43,42.805,6.029,CST-1368DR,9384,13134,15582,0.009,550
2019-05-24T07:29:45,42.805,6.029,CST-1368DR,9384,13135,15583,0.008,551
2019-05-24T07:32:46,42.805,6.029,CST-1368DR,9384,13134,15582,0.009,551
2019-05-24T07:35:47,42.805,6.029,CST-1368DR,9384,13133,15581,0.009,551
2019-05-24T07:38:49,42.805,6.029,CST-1368DR,9384,13132,15580,0.009,551
2019-05-24T07:41:50,42.805,6.029,CST-1368DR,9384,13130,15577,0.010,551
2019-05-24T07:44:52,42.805,6.029,CST-1368DR,9384,13132,15580,0.009,551
2019-05-24T07:47:53,42.805,6.029,CST-1368DR,9384,13129,15576,0.010,551
2019-05-24T07:50:54,42.805,6.029,CST-1368DR,9384,13124,15570,0.012,551
2019-05-24T07:53:56,42.805,6.029,CST-1368DR,9384,13115,15559,0.015,551
2019-05-24T07:56:57,42.805,6.029,CST-1368DR,9384,13131,15579,0.009,551
2019-05-24T07:59:59,42.805,6.029,CST-1368DR,9384,13130,15577,0.010,550
2019-05-24T08:03:00,42.805,6.029,CST-1368DR,9384,13130,15577,0.010,551
2019-05-24T08:06:02,42.805,6.029,CST-1368DR,9384,13134,15582,0.009,551
2019-05-24T08:09:03,42.805,6.029,CST-1368DR,9384,13106,15549,0.017,551
2019-05-24T08:12:04,42.805,6.029,CST-1368DR,9384,13128,15575,0.011,551
2019-05-24T08:15:06,42.805,6.029,CST-1368DR,9383,13068,15505,0.029,551
2019-05-24T08:18:07,42.805,6.029,CST-1368DR,9383,13124,15572,0.011,551
2019-05-24T08:21:09,42.805,6.029,CST-1368DR,9383,13117,15564,0.013,551
2019-05-24T08:24:10,42.805,6.029,CST-1368DR,9383,13113,15559,0.015,550
2019-05-24T08:27:11,42.805,6.029,CST-1368DR,9383,13126,15574,0.011,550
2019-05-24T08:30:13,42.805,6.029,CST-1368DR,9383,13124,15571,0.012,551
2019-05-24T08:33:14,42.805,6.029,CST-1368DR,9382,13097,15541,0.019,551
2019-05-24T08:36:16,42.805,6.029,CST-1368DR,9382,13110,15557,0.015,551
2019-05-24T08:39:17,42.805,6.029,CST-1368DR,9382,13117,15565,0.013,551
2019-05-24T08:42:18,42.805,6.029,CST-1368DR,9382,13077,15518,0.025,551
2019-05-24T08:45:20,42.805,6.029,CST-1368DR,9383,13123,15570,0.012,551
2019-05-24T08:48:21,42.805,6.029,CST-1368DR,9383,13104,15548,0.017,551
2019-05-24T08:51:23,42.805,6.029,CST-1368DR,9383,13120,15567,0.013,551
2019-05-24T08:54:24,42.805,6.029,CST-1368DR,9383,13110,15555,0.016,551
2019-05-24T08:57:25,42.805,6.029,CST-1368DR,9383,13130,15578,0.010,550
2019-05-24T09:00:27,42.805,6.029,CST-1368DR,9383,13129,15577,0.010,550
2019-05-24T09:03:28,42.805,6.029,CST-1368DR,9382,13041,15475,0.036,551
2019-05-24T09:06:30,42.805,6.029,CST-1368DR,9382,13131,15581,0.009,551
2019-05-24T09:09:31,42.805,6.029,CST-1368DR,9383,13130,15578,0.010,551
2019-05-24T09:12:33,42.805,6.029,CST-1368DR,9382,13120,15569,0.012,551
2019-05-24T09:15:34,42.805,6.029,CST-1368DR,9382,13123,15572,0.011,551
2019-05-24T09:18:35,42.805,6.029,CST-1368DR,9382,13122,15571,0.012,550
2019-05-24T09:21:37,42.805,6.029,CST-1368DR,9382,13112,15559,0.015,551
2019-05-24T09:24:38,42.805,6.029,CST-1368DR,9382,13093,15537,0.020,551
2019-05-24T09:27:40,42.805,6.029,CST-1368DR,9382,13107,15553,0.016,550
2019-05-24T09:30:41,42.805,6.029,CST-1368DR,9382,13125,15574,0.011,550
2019-05-24T09:33:42,42.805,6.029,CST-1368DR,9382,13121,15569,0.012,551
2019-05-24T09:36:44,42.805,6.029,CST-1368DR,9382,13114,15562,0.014,551
2019-05-24T09:39:45,42.805,6.029,CST-1368DR,9382,13101,15546,0.018,550
2019-05-24T09:42:47,42.805,6.029,CST-1368DR,9382,13104,15550,0.017,550
2019-05-24T09:45:48,42.805,6.029,CST-1368DR,9382,13104,15550,0.017,551
2019-05-24T09:48:49,42.805,6.029,CST-1368DR,9381,13096,15541,0.019,550
2019-05-24T09:51:51,42.805,6.029,CST-1368DR,9381,13107,15555,0.016,551
2019-05-24T09:54:52,42.805,6.029,CST-1368DR,9381,13096,15541,0.019,551
2019-05-24T09:57:54,42.805,6.029,CST-1368DR,9382,13103,15549,0.017,551
2019-05-24T10:00:55,42.805,6.029,CST-1368DR,9381,13079,15522,0.024,551
2019-05-24T10:03:56,42.805,6.029,CST-1368DR,9381,13091,15536,0.021,550
2019-05-24T10:06:58,42.805,6.029,CST-1368DR,9381,13097,15543,0.019,551
2019-05-24T10:09:59,42.805,6.029,CST-1368DR,9381,13110,15558,0.015,550
2019-05-24T10:13:01,42.805,6.029,CST-1368DR,9381,13116,15565,0.013,551
2019-05-24T10:16:02,42.805,6.029,CST-1368DR,9381,13123,15573,0.011,551
2019-05-24T10:19:04,42.805,6.029,CST-1368DR,9381,13119,15569,0.012,551
2019-05-24T10:22:05,42.805,6.029,CST-1368DR,9381,13124,15575,0.011,550
2019-05-24T10:25:06,42.805,6.029,CST-1368DR,9381,13101,15547,0.018,551
2019-05-24T10:28:08,42.805,6.029,CST-1368DR,9381,13081,15523,0.024,551
2019-05-24T10:31:09,42.805,6.029,CST-1368DR,9380,13104,15553,0.016,551
2019-05-24T10:34:11,42.805,6.029,CST-1368DR,9380,13100,15548,0.017,550
2019-05-24T10:37:12,42.805,6.029,CST-1368DR,9379,13047,15486,0.033,550
2019-05-24T10:40:13,42.805,6.029,CST-1368DR,9379,13059,15501,0.030,551
2019-05-24T10:43:15,42.805,6.029,CST-1368DR,9379,13028,15464,0.039,550
2019-05-24T10:46:16,42.805,6.029,CST-1368DR,9380,13122,15574,0.011,550
2019-05-24T10:49:18,42.805,6.029,CST-1368DR,9380,13101,15549,0.017,551
2019-05-24T10:52:19,42.805,6.029,CST-1368DR,9380,13100,15547,0.018,550
2019-05-24T10:55:20,42.805,6.029,CST-1368DR,9380,13055,15494,0.031,551
2019-05-24T10:58:22,42.805,6.029,CST-1368DR,9380,13073,15515,0.026,550
2019-05-24T11:01:23,42.805,6.029,CST-1368DR,9379,13055,15496,0.031,551
2019-05-24T11:04:25,42.805,6.029,CST-1368DR,9379,13084,15530,0.022,551
2019-05-24T11:07:26,42.805,6.029,CST-1368DR,9380,13126,15579,0.009,551
2019-05-24T11:10:28,42.805,6.029,CST-1368DR,9380,13129,15583,0.008,550
2019-05-24T11:13:29,42.805,6.029,CST-1368DR,9380,13129,15582,0.009,551
2019-05-24T11:16:30,42.805,6.029,CST-1368DR,9380,13129,15582,0.009,551
2019-05-24T11:19:32,42.805,6.029,CST-1368DR,9381,13129,15580,0.009,551
2019-05-24T11:22:33,42.805,6.029,CST-1368DR,9381,13127,15579,0.009,551
2019-05-24T11:25:35,42.805,6.029,CST-1368DR,9381,13131,15583,0.008,550
2019-05-24T11:28:36,42.805,6.029,CST-1368DR,9381,13131,15583,0.008,551
2019-05-24T11:31:37,42.805,6.029,CST-1368DR,9381,13130,15582,0.009,551
2019-05-24T11:34:39,42.805,6.029,CST-1368DR,9381,13130,15582,0.009,551
2019-05-24T11:37:40,42.805,6.029,CST-1368DR,9381,13130,15582,0.009,551
2019-05-24T11:40:42,42.805,6.029,CST-1368DR,9381,13130,15581,0.009,551
2019-05-24T11:43:43,42.805,6.029,CST-1368DR,9381,13129,15581,0.009,551
2019-05-24T11:46:44,42.805,6.029,CST-1368DR,9381,13126,15578,0.010,551
2019-05-24T11:49:46,42.805,6.029,CST-1368DR,9381,13129,15581,0.009,551
2019-05-24T11:52:47,42.805,6.029,CST-1368DR,9381,13130,15582,0.009,550
2019-05-24T11:55:49,42.805,6.029,CST-1368DR,9381,13129,15581,0.009,551
2019-05-24T11:58:50,42.805,6.029,CST-1368DR,9381,13130,15582,0.009,550
2019-05-24T12:01:51,42.805,6.029,CST-1368DR,9381,13123,15573,0.011,551
2019-05-24T12:04:53,42.805,6.029,CST-1368DR,9381,13127,15578,0.010,550
2019-05-24T12:07:54,42.805,6.029,CST-1368DR,9381,13129,15581,0.009,551
2019-05-24T12:10:56,42.805,6.029,CST-1368DR,9381,13129,15581,0.009,551
2019-05-24T12:13:57,42.805,6.029,CST-1368DR,9381,13129,15581,0.009,551
2019-05-24T12:16:59,42.805,6.029,CST-1368DR,9381,13129,15581,0.009,551
2019-05-24T12:20:00,42.805,6.029,CST-1368DR,9381,13129,15581,0.009,551
2019-05-24T12:23:01,42.805,6.029,CST-1368DR,9381,13130,15582,0.009,551
2019-05-24T12:26:03,42.805,6.029,CST-1368DR,9381,13127,15578,0.010,551
2019-05-24T12:29:04,42.805,6.029,CST-1368DR,9381,13129,15581,0.009,551
2019-05-24T12:32:06,42.805,6.029,CST-1368DR,9381,13129,15581,0.009,551
2019-05-24T12:35:07,42.805,6.029,CST-1368DR,9381,13129,15580,0.009,550
2019-05-24T12:38:08,42.805,6.029,CST-1368DR,9380,13121,15573,0.011,551
2019-05-24T12:41:10,42.805,6.029,CST-1368DR,9380,13130,15584,0.008,551
2019-05-24T12:44:11,42.805,6.029,CST-1368DR,9380,13129,15582,0.009,551
2019-05-24T12:47:13,42.805,6.029,CST-1368DR,9380,13127,15580,0.009,551
2019-05-24T12:50:14,42.805,6.029,CST-1368DR,9380,13127,15580,0.009,551
2019-05-24T12:53:15,42.805,6.029,CST-1368DR,9380,13126,15579,0.009,551
2019-05-24T12:56:17,42.805,6.029,CST-1368DR,9380,13129,15582,0.009,551
2019-05-24T12:59:18,42.805,6.029,CST-1368DR,9380,13129,15582,0.009,551
2019-05-24T13:02:20,42.805,6.029,CST-1368DR,9380,13126,15579,0.009,551
2019-05-24T13:05:21,42.805,6.029,CST-1368DR,9380,13128,15581,0.009,551
2019-05-24T13:08:22,42.805,6.029,CST-1368DR,9380,13126,15579,0.009,551
2019-05-24T13:11:24,42.805,6.029,CST-1368DR,9380,13129,15582,0.009,551
2019-05-24T13:14:25,42.805,6.029,CST-1368DR,9380,13128,15581,0.009,551
2019-05-24T13:17:27,42.805,6.029,CST-1368DR,9380,13129,15582,0.009,551
2019-05-24T13:20:28,42.805,6.029,CST-1368DR,9380,13129,15582,0.009,551
2019-05-24T13:23:30,42.805,6.029,CST-1368DR,9380,13129,15582,0.009,551
2019-05-24T13:26:31,42.805,6.029,CST-1368DR,9380,13123,15576,0.010,551
2019-05-24T13:29:32,42.805,6.029,CST-1368DR,9380,13128,15581,0.009,550
2019-05-24T13:32:34,42.805,6.029,CST-1368DR,9380,13127,15580,0.009,551
2019-05-24T13:35:35,42.805,6.029,CST-1368DR,9380,13128,15581,0.009,551
2019-05-24T13:38:37,42.805,6.029,CST-1368DR,9380,13125,15578,0.010,551
2019-05-24T13:41:38,42.805,6.029,CST-1368DR,9380,13127,15580,0.009,551
2019-05-24T13:44:39,42.805,6.029,CST-1368DR,9380,13125,15578,0.010,551
2019-05-24T13:47:41,42.805,6.029,CST-1368DR,9380,13127,15579,0.009,551
2019-05-24T13:50:42,42.805,6.029,CST-1368DR,9380,13127,15580,0.009,551
2019-05-24T13:53:44,42.805,6.029,CST-1368DR,9380,13127,15579,0.009,551
2019-05-24T13:56:45,42.805,6.029,CST-1368DR,9379,13126,15580,0.009,550
2019-05-24T13:59:46,42.805,6.029,CST-1368DR,9379,13126,15580,0.009,551
2019-05-24T14:02:48,42.805,6.029,CST-1368DR,9379,13119,15571,0.012,551
2019-05-24T14:05:49,42.805,6.029,CST-1368DR,9379,13128,15582,0.009,551
2019-05-24T14:08:51,42.805,6.029,CST-1368DR,9379,13126,15581,0.009,551
2019-05-24T14:11:52,42.805,6.029,CST-1368DR,9379,13126,15581,0.009,551
2019-05-24T14:14:53,42.805,6.029,CST-1368DR,9379,13126,15580,0.009,551
2019-05-24T14:17:55,42.805,6.029,CST-1368DR,9379,13126,15580,0.009,551
2019-05-24T14:20:56,42.805,6.029,CST-1368DR,9379,13128,15582,0.009,550
2019-05-24T14:23:58,42.805,6.029,CST-1368DR,9379,13127,15581,0.009,551
2019-05-24T14:26:59,42.805,6.029,CST-1368DR,9379,13128,15582,0.009,551
2019-05-24T14:30:01,42.805,6.029,CST-1368DR,9379,13120,15573,0.011,550
2019-05-24T14:33:02,42.805,6.029,CST-1368DR,9379,13128,15582,0.009,551
2019-05-24T14:36:03,42.805,6.029,CST-1368DR,9379,13126,15580,0.009,551
2019-05-24T14:39:05,42.805,6.029,CST-1368DR,9379,13126,15581,0.009,551
2019-05-24T14:42:06,42.805,6.029,CST-1368DR,9379,13126,15580,0.009,551
2019-05-24T14:45:08,42.805,6.029,CST-1368DR,9379,13125,15579,0.009,551
2019-05-24T14:48:09,42.805,6.029,CST-1368DR,9379,13126,15580,0.009,551
2019-05-24T14:51:10,42.805,6.029,CST-1368DR,9379,13123,15577,0.010,551
2019-05-24T14:54:12,42.805,6.029,CST-1368DR,9379,13126,15580,0.009,551
2019-05-24T14:57:13,42.805,6.029,CST-1368DR,9379,13127,15581,0.009,550
2019-05-24T15:00:15,42.805,6.029,CST-1368DR,9379,13125,15579,0.009,551
2019-05-24T15:03:16,42.805,6.029,CST-1368DR,9379,13126,15581,0.009,551
2019-05-24T15:06:17,42.805,6.029,CST-1368DR,9379,13126,15580,0.009,551
2019-05-24T15:09:19,42.805,6.029,CST-1368DR,9379,13124,15577,0.010,551
2019-05-24T15:12:20,42.805,6.029,CST-1368DR,9379,13126,15580,0.009,551
2019-05-24T15:15:22,42.805,6.029,CST-1368DR,9378,13124,15580,0.009,551
2019-05-24T15:18:23,42.805,6.029,CST-1368DR,9378,13126,15582,0.009,551
2019-05-24T15:21:25,42.805,6.029,CST-1368DR,9378,13126,15582,0.009,550
2019-05-24T15:24:26,42.805,6.029,CST-1368DR,9379,13124,15578,0.010,551
2019-05-24T15:27:27,42.805,6.029,CST-1368DR,9378,13125,15581,0.009,551
2019-05-24T15:30:29,42.805,6.029,CST-1368DR,9378,13126,15582,0.009,551
2019-05-24T15:33:30,42.805,6.029,CST-1368DR,9378,13126,15582,0.009,551
2019-05-24T15:36:32,42.805,6.029,CST-1368DR,9378,13126,15582,0.009,551
2019-05-24T15:39:33,42.805,6.029,CST-1368DR,9378,13125,15581,0.009,551
2019-05-24T15:42:34,42.805,6.029,CST-1368DR,9378,13126,15582,0.009,551
2019-05-24T15:45:36,42.805,6.029,CST-1368DR,9378,13125,15580,0.009,551
2019-05-24T15:48:37,42.805,6.029,CST-1368DR,9378,13126,15581,0.009,551
2019-05-24T15:51:39,42.805,6.029,CST-1368DR,9378,13124,15579,0.009,551
2019-05-24T15:54:40,42.805,6.029,CST-1368DR,9378,13125,15581,0.009,551
2019-05-24T15:57:41,42.805,6.029,CST-1368DR,9378,13126,15582,0.009,551
2019-05-24T16:00:43,42.805,6.029,CST-1368DR,9378,13125,15581,0.009,551
2019-05-24T16:03:44,42.805,6.029,CST-1368DR,9378,13126,15582,0.009,551
2019-05-24T16:06:46,42.805,6.029,CST-1368DR,9378,13124,15579,0.009,551
2019-05-24T16:09:47,42.805,6.029,CST-1368DR,9378,13126,15581,0.009,550
2019-05-24T16:12:48,42.805,6.029,CST-1368DR,9378,13126,15582,0.009,551
2019-05-24T16:15:50,42.805,6.029,CST-1368DR,9378,13125,15581,0.009,551
2019-05-24T16:18:51,42.805,6.029,CST-1368DR,9378,13125,15581,0.009,550
2019-05-24T16:21:53,42.805,6.029,CST-1368DR,9378,13126,15581,0.009,551
2019-05-24T16:24:54,42.805,6.029,CST-1368DR,9378,13126,15582,0.009,551
2019-05-24T16:27:56,42.805,6.029,CST-1368DR,9378,13123,15578,0.010,550
2019-05-24T16:30:57,42.805,6.029,CST-1368DR,9378,13127,15583,0.008,551
2019-05-24T16:33:58,42.805,6.029,CST-1368DR,9378,13127,15582,0.009,550
2019-05-24T16:37:00,42.805,6.029,CST-1368DR,9378,13126,15582,0.009,551